sat.trackr.live / text

‹ back to catalog

STARLINK-35935

NORAD 66527 · 2025-265M

PAYLOAD ACTIVE UNKNOWN

§ Identity

Operator
Country
US
Launch date
2025-11-19
Launch site
AFETR
Launch vehicle
Mass (kg)
RCS (m²)

Purposes: comms

External: N2YO · Heavens-Above · Gunter

§ Orbital elements

Epoch: 2026-09-20T16:29:01.176288Z

Period
94.27 min
Inclination
42.9961°
Eccentricity
0.0001078
Mean motion
15.27586677 rev/d
Perigee alt
482.3 km
Apogee alt
483.8 km
Semi-major
6,861.2 km
B*
2.3330e-4
RAAN
256.8715°
Arg perigee
282.0632°
Mean anomaly
78.0098°
Rev number
4,693

§ Raw data

STARLINK-359351 66527U 25265M   26263.68681917  .00006165  00000+0  23330-3 0  99922 66527  42.9961 256.8715 0001078 282.0632  78.0098 15.27586677 46930

JSON: /api/v1/satellites/66527 · /tle

For live sub-satellite position, see the globe view (requires WebGL).

§ Visibility from observer

Set your observer location to see the next 7 days of passes ≥ 10°. The values pass through the URL so the page stays shareable.

No JS? Fill the form by hand. The geolocation button needs JavaScript.